Marietta, GA

5:24 AM EDT on May 29, 2017 (GMT -0400)
Dobbins Air Force Base

Weather History for KMGE - November, 2012

Change the Weather History Date:

Tuesday, November 27, 2012

  Actual Average Record
Temperature  
Mean Temperature 50 °F -  
Max Temperature 55 °F 57 °F 71 °F (2001)
Min Temperature 45 °F 38 °F 26 °F (2013)
Degree Days  
Heating Degree Days 15    
Moisture  
Dew Point 48 °F    
Average Humidity 85    
Maximum Humidity 100    
Minimum Humidity 38    
Precipitation  
Precipitation 0.01 in - - ()
Sea Level Pressure  
Sea Level Pressure 30.14 in    
Wind  
Wind Speed 3 mph (West)    
Max Wind Speed 13 mph    
Max Gust Speed 20 mph    
Visibility 8 miles    
Events Rain    
Averages and records for this station are not official NWS values.
T = Trace of Precipitation, MM = Missing Value Source: NWS Daily Summary

Daily Weather History Graph

Daily Weather History Graph

Search for Another Location

Airport or City:

Trip Planner

Search our weather history database for the weather conditions in past years. The results will help you decide how hot, cold, wet, or windy it might be!

Date:

Astronomy

Nov. 27, 2012 Rise Set
Actual Time 7:22 AM EST 5:29 PM EST
Civil Twilight 6:54 AM EST 5:56 PM EST
Nautical Twilight 6:24 AM EST 6:27 PM EST
Astronomical Twilight 5:54 AM EST 6:57 PM EST
Moon 4:59 PM EST (11/27) 6:27 AM EST (11/27)
Length of Visible Light 11h 01m
Length of Day
10h 07m
Waxing Gibbous, 99% of the Moon is Illuminated
Nov 27
Waxing Gibbous
Nov 28
Full
Dec 6
Last Quarter
Dec 13
New
Dec 20
First Quarter

Hourly Weather History & Observations

Time (EST) Temp. Windchill Dew Point Humidity Pressure Visibility Wind Dir Wind Speed Gust Speed Precip Events Conditions
12:15 AM 53.6 °F - 33.8 °F 47% 30.16 in 10.0 mi Calm Calm - N/A Rain Light Rain
12:24 AM 53.6 °F - 32.0 °F 44% 30.16 in 10.0 mi SSE 3.5 mph - N/A   Overcast
12:32 AM 53.6 °F - 32.0 °F 44% 30.15 in 10.0 mi Calm Calm - N/A Rain Light Rain
12:42 AM 53.6 °F - 32.0 °F 44% 30.15 in 10.0 mi Calm Calm - N/A   Overcast
12:47 AM 55.4 °F - 30.2 °F 38% 30.15 in 8.0 mi SSE 3.5 mph - N/A Rain Rain
12:55 AM 54.5 °F - 33.1 °F 44% 30.14 in 7.0 mi SE 3.5 mph - 0.01 in Rain Light Rain
1:01 AM 53.6 °F - 35.6 °F 51% 30.14 in 10.0 mi Calm Calm - N/A   Overcast
1:55 AM 49.1 °F - 49.1 °F 100% 30.13 in 10.0 mi South 4.6 mph - 0.00 in   Mostly Cloudy
2:55 AM 53.1 °F - 41.4 °F 64% 30.12 in 10.0 mi South 4.6 mph - N/A   Overcast
3:27 AM 53.6 °F - 41.0 °F 62% 30.12 in 10.0 mi Calm Calm - N/A   Overcast
3:47 AM 53.6 °F - 42.8 °F 67% 30.11 in 10.0 mi SSW 3.5 mph - N/A   Light Drizzle
3:52 AM 53.6 °F - 42.8 °F 67% 30.11 in 10.0 mi Calm Calm - N/A   Light Drizzle
3:55 AM 54.1 °F - 43.7 °F 68% 30.11 in 10.0 mi Calm Calm - 0.00 in   Light Drizzle
3:56 AM 53.6 °F - 44.6 °F 72% 30.11 in 10.0 mi Calm Calm - N/A   Overcast
4:02 AM 53.6 °F - 44.6 °F 72% 30.11 in 10.0 mi Calm Calm - N/A   Overcast
4:16 AM 53.6 °F - 44.6 °F 72% 30.12 in 10.0 mi South 3.5 mph - N/A   Overcast
4:17 AM 53.6 °F - 44.6 °F 72% 30.12 in 10.0 mi South 3.5 mph - N/A   Overcast
4:51 AM 53.6 °F - 42.8 °F 67% 30.11 in 10.0 mi Calm Calm - N/A   Overcast
4:55 AM 53.4 °F - 42.1 °F 65% 30.11 in 10.0 mi Calm Calm - N/A   Overcast
4:57 AM 53.6 °F - 42.8 °F 67% 30.11 in 10.0 mi Calm Calm - N/A   Overcast
5:01 AM 53.6 °F - 42.8 °F 67% 30.11 in 10.0 mi Calm Calm - N/A   Overcast
5:07 AM 53.6 °F - 42.8 °F 67% 30.12 in 10.0 mi Calm Calm - N/A   Overcast
5:51 AM 53.6 °F - 42.8 °F 67% 30.12 in 10.0 mi Calm Calm - N/A   Overcast
5:55 AM 53.8 °F - 43.9 °F 69% 30.12 in 10.0 mi Calm Calm - N/A   Overcast
6:05 AM 53.6 °F - 46.4 °F 77% 30.12 in 10.0 mi Calm Calm - N/A   Overcast
6:55 AM 54.7 °F - 54.7 °F 100% 30.12 in 7.0 mi SW 8.1 mph - N/A   Overcast
7:05 AM 55.4 °F - 55.4 °F 100% 30.12 in 5.0 mi SSW 5.8 mph - N/A   Overcast
7:12 AM 55.4 °F - 55.4 °F 100% 30.12 in 5.0 mi South 5.8 mph - N/A   Overcast
7:47 AM 55.4 °F - 55.4 °F 100% 30.12 in 10.0 mi SSW 5.8 mph - N/A   Overcast
7:55 AM 54.7 °F - 54.7 °F 100% 30.12 in 7.0 mi SSW 6.9 mph - N/A   Overcast
8:33 AM 55.4 °F - 55.4 °F 100% 30.13 in 7.0 mi South 4.6 mph - N/A Rain Light Rain
8:55 AM 54.9 °F - 54.9 °F 100% 30.13 in 7.0 mi Calm Calm - 0.00 in Rain Light Rain
9:25 AM 55.4 °F - 55.4 °F 100% 30.13 in 7.0 mi South 3.5 mph - N/A   Overcast
9:55 AM 55.2 °F - 55.2 °F 100% 30.14 in 7.0 mi SW 4.6 mph - 0.00 in   Overcast
10:23 AM 55.4 °F - 55.4 °F 100% 30.13 in 7.0 mi South 5.8 mph - N/A Rain Light Rain
10:55 AM 55.9 °F - 55.9 °F 100% 30.15 in 7.0 mi Calm Calm - 0.00 in Rain Light Rain
11:55 AM 55.9 °F - 55.9 °F 100% 30.15 in 6.0 mi North 4.6 mph - 0.00 in   Light Drizzle
12:08 PM 55.4 °F - 55.4 °F 100% 30.14 in 3.0 mi Calm Calm - N/A   Overcast
12:17 PM 55.4 °F - 55.4 °F 100% 30.15 in 4.0 mi WNW 4.6 mph - N/A   Overcast
12:28 PM 55.4 °F - 55.4 °F 100% 30.14 in 4.0 mi WNW 5.8 mph - N/A   Overcast
12:55 PM 54.9 °F - 54.9 °F 100% 30.13 in 4.0 mi NW 4.6 mph - N/A   Overcast
1:10 PM 55.4 °F - 55.4 °F 100% 30.13 in 4.0 mi NNW 5.8 mph - N/A   Overcast
1:44 PM 53.6 °F - 53.6 °F 100% 30.13 in 3.0 mi WNW 6.9 mph - N/A   Overcast
1:46 PM 53.6 °F - 53.6 °F 100% 30.12 in 3.0 mi WNW 5.8 mph - N/A   Overcast
1:55 PM 53.4 °F - 53.4 °F 100% 30.13 in 3.0 mi Variable 5.8 mph - N/A   Overcast
2:07 PM 53.6 °F - 53.6 °F 100% 30.12 in 3.0 mi NW 5.8 mph - N/A   Overcast
2:55 PM 52.9 °F - 52.9 °F 100% 30.13 in 3.0 mi WNW 10.4 mph - N/A   Overcast
3:22 PM 51.8 °F - 51.8 °F 100% 30.13 in 4.0 mi NW 10.4 mph - N/A   Overcast
3:25 PM 51.8 °F - 51.8 °F 100% 30.13 in 4.0 mi NW 8.1 mph - N/A   Overcast
3:55 PM 52.2 °F - 52.2 °F 100% 30.14 in 4.0 mi NW 8.1 mph - N/A   Overcast
4:55 PM 51.6 °F - 51.4 °F 99% 30.16 in 7.0 mi WNW 6.9 mph - N/A   Overcast
5:36 PM 50.0 °F - 50.0 °F 100% 30.17 in 7.0 mi NW 9.2 mph - N/A   Overcast
5:55 PM 50.4 °F - 50.4 °F 100% 30.17 in 10.0 mi NW 6.9 mph - N/A   Overcast
6:55 PM 49.1 °F - 49.1 °F 100% 30.19 in 10.0 mi NW 10.4 mph - N/A   Overcast
7:04 PM 48.2 °F - 48.2 °F 100% 30.20 in 10.0 mi NW 11.5 mph - N/A   Overcast
7:55 PM 47.8 °F - 47.7 °F 99% 30.21 in 10.0 mi NW 12.7 mph - N/A   Overcast
8:16 PM 48.2 °F - 48.2 °F 100% 30.22 in 10.0 mi NW 12.7 mph - N/A   Overcast
8:24 PM 48.2 °F - 48.2 °F 100% 30.22 in 10.0 mi NW 11.5 mph - N/A   Overcast
8:55 PM 47.3 °F - 47.3 °F 100% 30.22 in 10.0 mi WNW 11.5 mph - N/A   Overcast
9:55 PM 46.9 °F - 46.9 °F 100% 30.23 in 10.0 mi NW 8.1 mph 17.3 mph N/A   Overcast
10:03 PM 46.4 °F 41.9 °F 46.4 °F 100% 30.24 in 10.0 mi WNW 9.2 mph - N/A   Overcast
10:55 PM 45.7 °F 41.0 °F 45.7 °F 100% 30.23 in 10.0 mi NNW 9.2 mph 19.6 mph N/A   Overcast
11:55 PM 45.1 °F 41.4 °F 45.1 °F 100% 30.24 in 10.0 mi NW 6.9 mph - N/A   Overcast